When you browse on this site, cookies collect data to enhance your experience and personalize the content and advertising you see.
Visit our Privacy Policy to learn more. By continuing to use the site, you agree to this use of cookies and data.
  • In United Kingdom
  • List of Countries
  • For 7 days
  • Water Temperature
  • Satellite Maps
  • Weather Map
  • Weather Widgets
  • user-avatar
    Login

    Hourly Weather Wafra

    Today, 22 April, Monday

    Time Temperature Precipitation Wind Pressure Humidity
    00:00 +26°C° 0 mm 2 mps 740 mmHg 21%
    01:00 +25°C° 0 mm 2 mps 740 mmHg 22%
    02:00 +25°C° 0 mm 2 mps 740 mmHg 23%
    03:00 +24°C° 0 mm 1 mps 740 mmHg 25%
    04:00 +24°C° 0 mm 2 mps 741 mmHg 25%
    05:00 +23°C° 0 mm 4 mps 742 mmHg 25%
    06:00 +23°C° 0 mm 5 mps 742 mmHg 24%
    07:00 +23°C° 0 mm 7 mps 743 mmHg 22%
    08:00 +23°C° 0 mm 9 mps 744 mmHg 19%
    09:00 +23°C° 0 mm 12 mps 745 mmHg 17%
    10:00 +24°C° 0 mm 11 mps 745 mmHg 15%
    11:00 +26°C° 0 mm 10 mps 745 mmHg 13%
    12:00 +27°C° 0 mm 10 mps 746 mmHg 11%
    13:00 +27°C° 0 mm 9 mps 746 mmHg 10%
    14:00 +27°C° 0 mm 9 mps 745 mmHg 9%
    15:00 +28°C° 0 mm 8 mps 745 mmHg 8%
    16:00 +27°C° 0 mm 8 mps 745 mmHg 8%
    17:00 +26°C° 0 mm 7 mps 745 mmHg 9%
    18:00 +26°C° 0 mm 6 mps 745 mmHg 9%
    19:00 +24°C° 0 mm 6 mps 746 mmHg 10%
    20:00 +23°C° 0 mm 5 mps 747 mmHg 11%
    21:00 +23°C° 0 mm 4 mps 747 mmHg 12%
    22:00 +22°C° 0 mm 4 mps 747 mmHg 14%
    23:00 +21°C° 0 mm 4 mps 748 mmHg 15%

    Tomorrow, 23 April, Tuesday

    Time Temperature Precipitation Wind Pressure Humidity
    00:00 +21°C° 0 mm 4 mps 748 mmHg 16%
    01:00 +20°C° 0 mm 4 mps 748 mmHg 16%
    02:00 +20°C° 0 mm 3 mps 748 mmHg 17%
    03:00 +19°C° 0 mm 3 mps 748 mmHg 18%
    04:00 +19°C° 0 mm 3 mps 748 mmHg 19%
    05:00 +19°C° 0 mm 3 mps 748 mmHg 19%
    06:00 +19°C° 0 mm 3 mps 748 mmHg 20%
    07:00 +21°C° 0 mm 4 mps 749 mmHg 17%
    08:00 +22°C° 0 mm 4 mps 749 mmHg 15%
    09:00 +25°C° 0 mm 5 mps 750 mmHg 13%
    10:00 +26°C° 0 mm 5 mps 750 mmHg 12%
    11:00 +27°C° 0 mm 6 mps 750 mmHg 11%
    12:00 +27°C° 0 mm 6 mps 750 mmHg 10%
    13:00 +28°C° 0 mm 6 mps 749 mmHg 10%
    14:00 +28°C° 0 mm 7 mps 749 mmHg 9%
    15:00 +29°C° 0 mm 7 mps 749 mmHg 9%
    16:00 +28°C° 0 mm 7 mps 749 mmHg 9%
    17:00 +28°C° 0 mm 6 mps 748 mmHg 10%
    18:00 +27°C° 0 mm 6 mps 748 mmHg 10%
    19:00 +27°C° 0 mm 6 mps 749 mmHg 11%
    20:00 +26°C° 0 mm 5 mps 749 mmHg 13%
    21:00 +25°C° 0 mm 5 mps 750 mmHg 14%
    22:00 +23°C° 0 mm 5 mps 750 mmHg 16%
    23:00 +23°C° 0 mm 5 mps 750 mmHg 18%

    Day after tomorrow, 24 April, Wednesday

    Time Temperature Precipitation Wind Pressure Humidity
    00:00 +22°C° 0 mm 5 mps 750 mmHg 20%
    01:00 +22°C° 0 mm 5 mps 750 mmHg 21%
    02:00 +21°C° 0 mm 5 mps 750 mmHg 23%
    03:00 +21°C° 0 mm 4 mps 750 mmHg 24%
    04:00 +20°C° 0 mm 4 mps 750 mmHg 25%
    05:00 +20°C° 0 mm 4 mps 750 mmHg 25%
    06:00 +20°C° 0 mm 4 mps 750 mmHg 25%
    07:00 +21°C° 0 mm 6 mps 751 mmHg 22%
    08:00 +23°C° 0 mm 7 mps 751 mmHg 19%
    09:00 +24°C° 0 mm 8 mps 752 mmHg 16%
    10:00 +26°C° 0 mm 8 mps 752 mmHg 15%
    11:00 +27°C° 0 mm 8 mps 751 mmHg 14%
    12:00 +28°C° 0 mm 8 mps 751 mmHg 13%
    13:00 +29°C° 0 mm 8 mps 751 mmHg 13%
    14:00 +29°C° 0 mm 8 mps 750 mmHg 13%
    15:00 +29°C° 0 mm 8 mps 749 mmHg 13%
    16:00 +29°C° 0 mm 7 mps 749 mmHg 14%
    17:00 +28°C° 0 mm 7 mps 749 mmHg 15%
    18:00 +28°C° 0 mm 6 mps 749 mmHg 15%
    19:00 +27°C° 0 mm 6 mps 749 mmHg 17%
    20:00 +26°C° 0 mm 5 mps 749 mmHg 18%
    21:00 +26°C° 0 mm 4 mps 749 mmHg 19%
    22:00 +25°C° 0 mm 5 mps 749 mmHg 19%
    23:00 +25°C° 0 mm 5 mps 749 mmHg 20%

    25 April, Thursday

    Time Temperature Precipitation Wind Pressure Humidity
    00:00 +23°C° 0 mm 5 mps 749 mmHg 20%
    01:00 +23°C° 0 mm 5 mps 749 mmHg 21%
    02:00 +22°C° 0 mm 6 mps 748 mmHg 23%
    03:00 +22°C° 0 mm 6 mps 748 mmHg 24%
    04:00 +21°C° 0 mm 6 mps 748 mmHg 24%
    05:00 +21°C° 0 mm 5 mps 749 mmHg 25%
    06:00 +21°C° 0 mm 5 mps 749 mmHg 26%
    07:00 +22°C° 0 mm 6 mps 749 mmHg 23%
    08:00 +24°C° 0 mm 7 mps 750 mmHg 20%
    09:00 +26°C° 0 mm 8 mps 750 mmHg 18%
    10:00 +28°C° 0 mm 8 mps 750 mmHg 16%
    11:00 +29°C° 0 mm 8 mps 749 mmHg 14%
    12:00 +31°C° 0 mm 8 mps 749 mmHg 13%
    13:00 +31°C° 0 mm 8 mps 749 mmHg 12%
    14:00 +32°C° 0 mm 8 mps 748 mmHg 12%
    15:00 +32°C° 0 mm 8 mps 747 mmHg 11%
    16:00 +30°C° 0 mm 7 mps 747 mmHg 12%
    17:00 +30°C° 0 mm 6 mps 747 mmHg 12%
    18:00 +29°C° 0 mm 5 mps 747 mmHg 13%
    19:00 +29°C° 0 mm 5 mps 747 mmHg 14%
    20:00 +28°C° 0 mm 4 mps 747 mmHg 14%
    21:00 +27°C° 0 mm 3 mps 748 mmHg 15%
    22:00 +26°C° 0 mm 3 mps 748 mmHg 15%
    23:00 +26°C° 0 mm 4 mps 747 mmHg 16%

    26 April, Friday

    Time Temperature Precipitation Wind Pressure Humidity
    00:00 +25°C° 0 mm 4 mps 747 mmHg 16%
    01:00 +25°C° 0 mm 4 mps 747 mmHg 17%
    02:00 +23°C° 0 mm 4 mps 747 mmHg 18%
    03:00 +23°C° 0 mm 5 mps 747 mmHg 18%
    04:00 +23°C° 0 mm 4 mps 747 mmHg 19%
    05:00 +22°C° 0 mm 4 mps 747 mmHg 20%
    06:00 +22°C° 0 mm 4 mps 747 mmHg 21%
    07:00 +25°C° 0 mm 5 mps 748 mmHg 18%
    08:00 +27°C° 0 mm 5 mps 748 mmHg 16%
    09:00 +29°C° 0 mm 6 mps 748 mmHg 14%
    10:00 +30°C° 0 mm 6 mps 748 mmHg 14%
    11:00 +32°C° 0 mm 6 mps 748 mmHg 13%
    12:00 +33°C° 0 mm 7 mps 748 mmHg 13%
    13:00 +33°C° 0 mm 7 mps 747 mmHg 12%
    14:00 +34°C° 0 mm 7 mps 747 mmHg 12%
    15:00 +34°C° 0 mm 7 mps 746 mmHg 11%
    16:00 +33°C° 0 mm 6 mps 746 mmHg 12%
    17:00 +33°C° 0 mm 5 mps 746 mmHg 13%
    18:00 +32°C° 0 mm 4 mps 746 mmHg 13%
    19:00 +30°C° 0 mm 3 mps 747 mmHg 15%
    20:00 +29°C° 0 mm 2 mps 747 mmHg 17%
    21:00 +27°C° 0 mm 1 mps 747 mmHg 19%
    22:00 +27°C° 0 mm 1 mps 747 mmHg 19%
    23:00 +26°C° 0 mm 1 mps 747 mmHg 20%

    27 April, Saturday

    Time Temperature Precipitation Wind Pressure Humidity
    00:00 +25°C° 0 mm 1 mps 747 mmHg 21%
    01:00 +25°C° 0 mm 1 mps 746 mmHg 22%
    02:00 +24°C° 0 mm 1 mps 746 mmHg 22%
    03:00 +24°C° 0 mm 1 mps 746 mmHg 23%
    04:00 +24°C° 0 mm 1 mps 746 mmHg 22%
    05:00 +24°C° 0 mm 2 mps 747 mmHg 22%
    06:00 +24°C° 0 mm 2 mps 747 mmHg 21%
    07:00 +26°C° 0 mm 2 mps 747 mmHg 18%
    08:00 +28°C° 0 mm 2 mps 748 mmHg 15%
    09:00 +30°C° 0 mm 2 mps 749 mmHg 13%
    10:00 +31°C° 0 mm 2 mps 748 mmHg 12%
    11:00 +32°C° 0 mm 2 mps 748 mmHg 11%
    12:00 +34°C° 0 mm 2 mps 748 mmHg 11%
    13:00 +34°C° 0 mm 2 mps 747 mmHg 11%
    14:00 +34°C° 0 mm 1 mps 747 mmHg 11%
    15:00 +34°C° 0 mm 1 mps 746 mmHg 10%
    16:00 +34°C° 0 mm 3 mps 746 mmHg 12%
    17:00 +33°C° 0 mm 4 mps 746 mmHg 14%
    18:00 +32°C° 0 mm 5 mps 746 mmHg 15%
    19:00 +32°C° 0 mm 5 mps 746 mmHg 17%
    20:00 +30°C° 0 mm 5 mps 747 mmHg 18%
    21:00 +29°C° 0 mm 5 mps 747 mmHg 20%
    22:00 +29°C° 0 mm 4 mps 747 mmHg 20%
    23:00 +28°C° 0 mm 3 mps 746 mmHg 21%
    Show more